Year,Month,Day,Hour,Minute,Value (Times are PST for temperature in C)
2006,05,02,00,00,5.50
2006,05,02,00,01,5.50
2006,05,02,00,02,5.50
2006,05,02,00,03,5.50
2006,05,02,00,04,5.40
2006,05,02,00,05,5.40
2006,05,02,00,06,5.40
2006,05,02,00,07,5.30
2006,05,02,00,08,5.30
2006,05,02,00,09,5.30
2006,05,02,00,10,5.30
2006,05,02,00,11,5.20
2006,05,02,00,12,5.20
2006,05,02,00,13,5.10
2006,05,02,00,14,5.10
2006,05,02,00,15,5.10
2006,05,02,00,16,5.10
2006,05,02,00,17,5.10
2006,05,02,00,18,5.00
2006,05,02,00,19,4.90
2006,05,02,00,20,4.90
2006,05,02,00,21,4.90
2006,05,02,00,22,4.90
2006,05,02,00,23,4.90
2006,05,02,00,24,4.80
2006,05,02,00,25,4.80
2006,05,02,00,26,4.80
2006,05,02,00,27,4.80
2006,05,02,00,28,4.70
2006,05,02,00,29,4.70
2006,05,02,00,30,4.70
2006,05,02,00,31,4.70
2006,05,02,00,32,4.70
2006,05,02,00,33,4.70
2006,05,02,00,34,4.70
2006,05,02,00,35,4.70
2006,05,02,00,36,4.70
2006,05,02,00,37,4.70
2006,05,02,00,38,4.60
2006,05,02,00,39,4.60
2006,05,02,00,40,4.60
2006,05,02,00,41,4.60
2006,05,02,00,42,4.60
2006,05,02,00,43,4.60
2006,05,02,00,44,4.60
2006,05,02,00,45,4.60
2006,05,02,00,46,4.50
2006,05,02,00,47,4.50
2006,05,02,00,48,4.50
2006,05,02,00,49,4.40
2006,05,02,00,50,4.40
2006,05,02,00,51,4.40
2006,05,02,00,52,4.40
2006,05,02,00,53,4.40
2006,05,02,00,54,4.40
2006,05,02,00,55,4.40
2006,05,02,00,56,4.40
2006,05,02,00,57,4.50
2006,05,02,00,58,4.50
2006,05,02,00,59,4.50
2006,05,02,01,00,4.50
2006,05,02,01,01,4.50
2006,05,02,01,02,4.50
2006,05,02,01,03,4.50
2006,05,02,01,04,4.50
2006,05,02,01,05,4.50
2006,05,02,01,06,4.40
2006,05,02,01,07,4.40
2006,05,02,01,08,4.40
2006,05,02,01,09,4.40
2006,05,02,01,10,4.40
2006,05,02,01,11,4.40
2006,05,02,01,12,4.40
2006,05,02,01,13,4.40
2006,05,02,01,14,4.40
2006,05,02,01,15,4.40
2006,05,02,01,16,4.40
2006,05,02,01,17,4.40
2006,05,02,01,18,4.40
2006,05,02,01,19,4.30
2006,05,02,01,20,4.30
2006,05,02,01,21,4.20
2006,05,02,01,22,4.20
2006,05,02,01,23,4.20
2006,05,02,01,24,4.20
2006,05,02,01,25,4.20
2006,05,02,01,26,4.20
2006,05,02,01,27,4.20
2006,05,02,01,28,4.20
2006,05,02,01,29,4.10
2006,05,02,01,30,4.10
2006,05,02,01,31,4.10
2006,05,02,01,32,4.00
2006,05,02,01,33,4.00
2006,05,02,01,34,3.90
2006,05,02,01,35,3.90
2006,05,02,01,36,3.90
2006,05,02,01,37,3.80
2006,05,02,01,38,3.80
2006,05,02,01,39,3.80
2006,05,02,01,40,3.80
2006,05,02,01,41,3.80
2006,05,02,01,42,3.80
2006,05,02,01,43,3.80
2006,05,02,01,44,3.80
2006,05,02,01,45,3.80
2006,05,02,01,46,3.80
2006,05,02,01,47,3.80
2006,05,02,01,48,3.70
2006,05,02,01,49,3.70
2006,05,02,01,50,3.70
2006,05,02,01,51,3.70
2006,05,02,01,52,3.80
2006,05,02,01,53,3.80
2006,05,02,01,54,3.90
2006,05,02,01,55,4.00
2006,05,02,01,56,4.10
2006,05,02,01,57,4.20
2006,05,02,01,58,4.30
2006,05,02,01,59,4.30
2006,05,02,02,00,4.30
2006,05,02,02,01,4.30
2006,05,02,02,02,4.20
2006,05,02,02,03,4.20
2006,05,02,02,04,4.20
2006,05,02,02,05,4.20
2006,05,02,02,06,4.10
2006,05,02,02,07,4.10
2006,05,02,02,08,4.10
2006,05,02,02,09,4.10
2006,05,02,02,10,4.00
2006,05,02,02,11,4.00
2006,05,02,02,12,4.00
2006,05,02,02,13,4.00
2006,05,02,02,14,3.90
2006,05,02,02,15,3.90
2006,05,02,02,16,3.90
2006,05,02,02,17,3.90
2006,05,02,02,18,3.90
2006,05,02,02,19,3.90
2006,05,02,02,20,3.90
2006,05,02,02,21,3.90
2006,05,02,02,22,3.90
2006,05,02,02,23,3.90
2006,05,02,02,24,3.90
2006,05,02,02,25,3.90
2006,05,02,02,26,3.80
2006,05,02,02,27,3.80
2006,05,02,02,28,3.80
2006,05,02,02,29,3.80
2006,05,02,02,30,3.70
2006,05,02,02,31,3.60
2006,05,02,02,32,3.60
2006,05,02,02,33,3.60
2006,05,02,02,34,3.50
2006,05,02,02,35,3.40
2006,05,02,02,36,3.40
2006,05,02,02,37,3.30
2006,05,02,02,38,3.30
2006,05,02,02,39,3.30
2006,05,02,02,40,3.30
2006,05,02,02,41,3.20
2006,05,02,02,42,3.20
2006,05,02,02,43,3.20
2006,05,02,02,44,3.10
2006,05,02,02,45,3.10
2006,05,02,02,46,3.10
2006,05,02,02,47,3.10
2006,05,02,02,48,3.10
2006,05,02,02,49,3.10
2006,05,02,02,50,3.10
2006,05,02,02,51,3.10
2006,05,02,02,52,3.10
2006,05,02,02,53,3.10
2006,05,02,02,54,3.10
2006,05,02,02,55,3.10
2006,05,02,02,56,3.20
2006,05,02,02,57,3.20
2006,05,02,02,58,3.30
2006,05,02,02,59,3.30
2006,05,02,03,00,3.30
2006,05,02,03,01,3.30
2006,05,02,03,02,3.30
2006,05,02,03,03,3.30
2006,05,02,03,04,3.30
2006,05,02,03,05,3.20
2006,05,02,03,06,3.20
2006,05,02,03,07,3.10
2006,05,02,03,08,3.10
2006,05,02,03,09,3.10
2006,05,02,03,10,3.00
2006,05,02,03,11,2.90
2006,05,02,03,12,2.90
2006,05,02,03,13,2.80
2006,05,02,03,14,2.80
2006,05,02,03,15,2.70
2006,05,02,03,16,2.70
2006,05,02,03,17,2.70
2006,05,02,03,18,2.70
2006,05,02,03,19,2.60
2006,05,02,03,20,2.50
2006,05,02,03,21,2.50
2006,05,02,03,22,2.50
2006,05,02,03,23,2.40
2006,05,02,03,24,2.40
2006,05,02,03,25,2.30
2006,05,02,03,26,2.30
2006,05,02,03,27,2.30
2006,05,02,03,28,2.20
2006,05,02,03,29,2.20
2006,05,02,03,30,2.20
2006,05,02,03,31,2.20
2006,05,02,03,32,2.20
2006,05,02,03,33,2.20
2006,05,02,03,34,2.20
2006,05,02,03,35,2.10
2006,05,02,03,36,2.10
2006,05,02,03,37,2.10
2006,05,02,03,38,2.10
2006,05,02,03,39,2.00
2006,05,02,03,40,2.00
2006,05,02,03,41,2.00
2006,05,02,03,42,2.00
2006,05,02,03,43,2.00
2006,05,02,03,44,1.90
2006,05,02,03,45,1.90
2006,05,02,03,46,1.90
2006,05,02,03,47,1.90
2006,05,02,03,48,1.80
2006,05,02,03,49,1.80
2006,05,02,03,50,1.80
2006,05,02,03,51,1.80
2006,05,02,03,52,1.80
2006,05,02,03,53,1.80
2006,05,02,03,54,1.80
2006,05,02,03,55,1.80
2006,05,02,03,56,1.80
2006,05,02,03,57,1.80
2006,05,02,03,58,1.80
2006,05,02,03,59,1.80
2006,05,02,04,00,1.80
2006,05,02,04,01,1.70
2006,05,02,04,02,1.70
2006,05,02,04,03,1.70
2006,05,02,04,04,1.70
2006,05,02,04,05,1.60
2006,05,02,04,06,1.60
2006,05,02,04,07,1.60
2006,05,02,04,08,1.50
2006,05,02,04,09,1.50
2006,05,02,04,10,1.50
2006,05,02,04,11,1.50
2006,05,02,04,12,1.40
2006,05,02,04,13,1.40
2006,05,02,04,14,1.40
2006,05,02,04,15,1.40
2006,05,02,04,16,1.40
2006,05,02,04,17,1.40
2006,05,02,04,18,1.40
2006,05,02,04,19,1.40
2006,05,02,04,20,1.40
2006,05,02,04,21,1.40
2006,05,02,04,22,1.30
2006,05,02,04,23,1.40
2006,05,02,04,24,1.40
2006,05,02,04,25,1.40
2006,05,02,04,26,1.40
2006,05,02,04,27,1.40
2006,05,02,04,28,1.40
2006,05,02,04,29,1.40
2006,05,02,04,30,1.40
2006,05,02,04,31,1.40
2006,05,02,04,32,1.30
2006,05,02,04,33,1.30
2006,05,02,04,34,1.30
2006,05,02,04,35,1.30
2006,05,02,04,36,1.30
2006,05,02,04,37,1.30
2006,05,02,04,38,1.20
2006,05,02,04,39,1.20
2006,05,02,04,40,1.20
2006,05,02,04,41,1.20
2006,05,02,04,42,1.10
2006,05,02,04,43,1.10
2006,05,02,04,44,1.10
2006,05,02,04,45,1.00
2006,05,02,04,46,1.00
2006,05,02,04,47,1.00
2006,05,02,04,48,0.90
2006,05,02,04,49,0.90
2006,05,02,04,50,1.00
2006,05,02,04,51,1.00
2006,05,02,04,52,1.00
2006,05,02,04,53,1.10
2006,05,02,04,54,1.10
2006,05,02,04,55,1.10
2006,05,02,04,56,1.10
2006,05,02,04,57,1.00
2006,05,02,04,58,1.00
2006,05,02,04,59,1.00
2006,05,02,05,00,1.00
2006,05,02,05,01,0.90
2006,05,02,05,02,0.90
2006,05,02,05,03,0.90
2006,05,02,05,04,0.80
2006,05,02,05,05,0.80
2006,05,02,05,06,0.80
2006,05,02,05,07,0.80
2006,05,02,05,08,0.80
2006,05,02,05,09,0.80
2006,05,02,05,10,0.80
2006,05,02,05,11,0.80
2006,05,02,05,12,0.80
2006,05,02,05,13,0.80
2006,05,02,05,14,0.80
2006,05,02,05,15,0.80
2006,05,02,05,16,0.80
2006,05,02,05,17,0.70
2006,05,02,05,18,0.70
2006,05,02,05,19,0.70
2006,05,02,05,20,0.70
2006,05,02,05,21,0.60
2006,05,02,05,22,0.60
2006,05,02,05,23,0.60
2006,05,02,05,24,0.60
2006,05,02,05,25,0.50
2006,05,02,05,26,0.50
2006,05,02,05,27,0.50
2006,05,02,05,28,0.50
2006,05,02,05,29,0.50
2006,05,02,05,30,0.40
2006,05,02,05,31,0.40
2006,05,02,05,32,0.40
2006,05,02,05,33,0.40
2006,05,02,05,34,0.40
2006,05,02,05,35,0.40
2006,05,02,05,36,0.40
2006,05,02,05,37,0.40
2006,05,02,05,38,0.40
2006,05,02,05,39,0.40
2006,05,02,05,40,0.40
2006,05,02,05,41,0.40
2006,05,02,05,42,0.30
2006,05,02,05,43,0.30
2006,05,02,05,44,0.30
2006,05,02,05,45,0.30
2006,05,02,05,46,0.30
2006,05,02,05,47,0.30
2006,05,02,05,48,0.30
2006,05,02,05,49,0.30
2006,05,02,05,50,0.30
2006,05,02,05,51,0.20
2006,05,02,05,52,0.20
2006,05,02,05,53,0.20
2006,05,02,05,54,0.20
2006,05,02,05,55,0.20
2006,05,02,05,56,0.30
2006,05,02,05,57,0.30
2006,05,02,05,58,0.30
2006,05,02,05,59,0.30
2006,05,02,06,00,0.30
2006,05,02,06,01,0.40
2006,05,02,06,02,0.40
2006,05,02,06,03,0.40
2006,05,02,06,04,0.40
2006,05,02,06,05,0.40
2006,05,02,06,06,0.40
2006,05,02,06,07,0.40
2006,05,02,06,08,0.40
2006,05,02,06,09,0.40
2006,05,02,06,10,0.40
2006,05,02,06,11,0.40
2006,05,02,06,12,0.40
2006,05,02,06,13,0.40
2006,05,02,06,14,0.40
2006,05,02,06,15,0.40
2006,05,02,06,16,0.40
2006,05,02,06,17,0.40
2006,05,02,06,18,0.40
2006,05,02,06,19,0.40
2006,05,02,06,20,0.40
2006,05,02,06,21,0.40
2006,05,02,06,22,0.40
2006,05,02,06,23,0.30
2006,05,02,06,24,0.30
2006,05,02,06,25,0.30
2006,05,02,06,26,0.30
2006,05,02,06,27,0.30
2006,05,02,06,28,0.30
2006,05,02,06,29,0.30
2006,05,02,06,30,0.30
2006,05,02,06,31,0.30
2006,05,02,06,32,0.30
2006,05,02,06,33,0.30
2006,05,02,06,34,0.30
2006,05,02,06,35,0.30
2006,05,02,06,36,0.30
2006,05,02,06,37,0.40
2006,05,02,06,38,0.40
2006,05,02,06,39,0.40
2006,05,02,06,40,0.40
2006,05,02,06,41,0.40
2006,05,02,06,42,0.40
2006,05,02,06,43,0.40
2006,05,02,06,44,0.40
2006,05,02,06,45,0.40
2006,05,02,06,46,0.40
2006,05,02,06,47,0.40
2006,05,02,06,48,0.40
2006,05,02,06,49,0.40
2006,05,02,06,50,0.40
2006,05,02,06,51,0.40
2006,05,02,06,52,0.40
2006,05,02,06,53,0.40
2006,05,02,06,54,0.40
2006,05,02,06,55,0.50
2006,05,02,06,56,0.50
2006,05,02,06,57,0.60
2006,05,02,06,58,0.60
2006,05,02,06,59,0.70
2006,05,02,07,00,0.80
2006,05,02,07,01,0.90
2006,05,02,07,02,1.00
2006,05,02,07,03,1.10
2006,05,02,07,04,1.30
2006,05,02,07,05,1.30
2006,05,02,07,06,1.40
2006,05,02,07,07,1.40
2006,05,02,07,08,1.50
2006,05,02,07,09,1.50
2006,05,02,07,10,1.60
2006,05,02,07,11,1.70
2006,05,02,07,12,1.70
2006,05,02,07,13,1.80
2006,05,02,07,14,1.90
2006,05,02,07,15,2.00
2006,05,02,07,16,2.20
2006,05,02,07,17,2.30
2006,05,02,07,18,2.40
2006,05,02,07,19,2.50
2006,05,02,07,20,2.60
2006,05,02,07,21,2.70
2006,05,02,07,22,2.70
2006,05,02,07,23,2.70
2006,05,02,07,24,2.80
2006,05,02,07,25,2.80
2006,05,02,07,26,2.90
2006,05,02,07,27,2.90
2006,05,02,07,28,3.00
2006,05,02,07,29,3.10
2006,05,02,07,30,3.30
2006,05,02,07,31,3.30
2006,05,02,07,32,3.30
2006,05,02,07,33,3.40
2006,05,02,07,34,3.50
2006,05,02,07,35,3.50
2006,05,02,07,36,3.60
2006,05,02,07,37,3.60
2006,05,02,07,38,3.70
2006,05,02,07,39,3.80
2006,05,02,07,40,3.90
2006,05,02,07,41,4.00
2006,05,02,07,42,4.10
2006,05,02,07,43,4.20
2006,05,02,07,44,4.40
2006,05,02,07,45,4.50
2006,05,02,07,46,4.70
2006,05,02,07,47,4.80
2006,05,02,07,48,4.90
2006,05,02,07,49,5.00
2006,05,02,07,50,5.10
2006,05,02,07,51,5.20
2006,05,02,07,52,5.40
2006,05,02,07,53,5.50
2006,05,02,07,54,5.60
2006,05,02,07,55,5.70
2006,05,02,07,56,5.80
2006,05,02,07,57,5.90
2006,05,02,07,58,6.00
2006,05,02,07,59,6.10
2006,05,02,08,00,6.10
2006,05,02,08,01,6.20
2006,05,02,08,02,6.30
2006,05,02,08,03,6.50
2006,05,02,08,04,6.60
2006,05,02,08,05,6.80
2006,05,02,08,06,6.90
2006,05,02,08,07,7.00
2006,05,02,08,08,7.10
2006,05,02,08,09,7.30
2006,05,02,08,10,7.40
2006,05,02,08,11,7.60
2006,05,02,08,12,7.70
2006,05,02,08,13,7.80
2006,05,02,08,14,7.90
2006,05,02,08,15,8.00
2006,05,02,08,16,8.00
2006,05,02,08,17,8.10
2006,05,02,08,18,8.10
2006,05,02,08,19,8.20
2006,05,02,08,20,8.20
2006,05,02,08,21,8.20
2006,05,02,08,22,8.20
2006,05,02,08,23,8.20
2006,05,02,08,24,8.30
2006,05,02,08,25,8.40
2006,05,02,08,26,8.40
2006,05,02,08,27,8.50
2006,05,02,08,28,8.50
2006,05,02,08,29,8.50
2006,05,02,08,30,8.50
2006,05,02,08,31,8.50
2006,05,02,08,32,8.60
2006,05,02,08,33,8.60
2006,05,02,08,34,8.60
2006,05,02,08,35,8.60
2006,05,02,08,36,8.60
2006,05,02,08,37,8.70
2006,05,02,08,38,8.70
2006,05,02,08,39,8.80
2006,05,02,08,40,8.80
2006,05,02,08,41,8.80
2006,05,02,08,42,8.80
2006,05,02,08,43,8.80
2006,05,02,08,44,8.90
2006,05,02,08,45,8.90
2006,05,02,08,46,8.90
2006,05,02,08,47,8.90
2006,05,02,08,48,8.90
2006,05,02,08,49,8.90
2006,05,02,08,50,8.90
2006,05,02,08,51,8.90
2006,05,02,08,52,8.90
2006,05,02,08,53,9.00
2006,05,02,08,54,9.00
2006,05,02,08,55,9.10
2006,05,02,08,56,9.20
2006,05,02,08,57,9.20
2006,05,02,08,58,9.20
2006,05,02,08,59,9.20
2006,05,02,09,00,9.20
2006,05,02,09,01,9.20
2006,05,02,09,02,9.20
2006,05,02,09,03,9.20
2006,05,02,09,04,9.30
2006,05,02,09,05,9.30
2006,05,02,09,06,9.30
2006,05,02,09,07,9.20
2006,05,02,09,08,9.20
2006,05,02,09,09,9.30
2006,05,02,09,10,9.30
2006,05,02,09,11,9.30
2006,05,02,09,12,9.30
2006,05,02,09,13,9.30
2006,05,02,09,14,9.20
2006,05,02,09,15,9.30
2006,05,02,09,16,9.30
2006,05,02,09,17,9.30
2006,05,02,09,18,9.40
2006,05,02,09,19,9.30
2006,05,02,09,20,9.30
2006,05,02,09,21,9.30
2006,05,02,09,22,9.40
2006,05,02,09,23,9.40
2006,05,02,09,24,9.50
2006,05,02,09,25,9.60
2006,05,02,09,26,9.60
2006,05,02,09,27,9.60
2006,05,02,09,28,9.60
2006,05,02,09,29,9.60
2006,05,02,09,30,9.60
2006,05,02,09,31,9.70
2006,05,02,09,32,9.70
2006,05,02,09,33,9.70
2006,05,02,09,34,9.70
2006,05,02,09,35,9.70
2006,05,02,09,36,9.60
2006,05,02,09,37,9.50
2006,05,02,09,38,9.50
2006,05,02,09,39,9.50
2006,05,02,09,40,9.60
2006,05,02,09,41,9.60
2006,05,02,09,42,9.60
2006,05,02,09,43,9.60
2006,05,02,09,44,9.60
2006,05,02,09,45,9.60
2006,05,02,09,46,9.60
2006,05,02,09,47,9.60
2006,05,02,09,48,9.60
2006,05,02,09,49,9.60
2006,05,02,09,50,9.70
2006,05,02,09,51,9.70
2006,05,02,09,52,9.70
2006,05,02,09,53,9.70
2006,05,02,09,54,9.70
2006,05,02,09,55,9.70
2006,05,02,09,56,9.70
2006,05,02,09,57,9.70
2006,05,02,09,58,9.80
2006,05,02,09,59,9.90
2006,05,02,10,00,9.90
2006,05,02,10,01,9.90
2006,05,02,10,02,9.90
2006,05,02,10,03,9.90
2006,05,02,10,04,9.90
2006,05,02,10,05,9.90
2006,05,02,10,06,9.90
2006,05,02,10,07,9.90
2006,05,02,10,08,10.00
2006,05,02,10,09,9.90
2006,05,02,10,10,10.00
2006,05,02,10,11,10.10
2006,05,02,10,12,10.10
2006,05,02,10,13,10.10
2006,05,02,10,14,10.10
2006,05,02,10,15,10.10
2006,05,02,10,16,10.10
2006,05,02,10,17,10.00
2006,05,02,10,18,9.90
2006,05,02,10,19,9.90
2006,05,02,10,20,9.90
2006,05,02,10,21,9.90
2006,05,02,10,22,9.90
2006,05,02,10,23,10.00
2006,05,02,10,24,10.10
2006,05,02,10,25,10.10
2006,05,02,10,26,10.10
2006,05,02,10,27,10.10
2006,05,02,10,28,10.10
2006,05,02,10,29,10.10
2006,05,02,10,30,10.20
2006,05,02,10,31,10.30
2006,05,02,10,32,10.40
2006,05,02,10,33,10.40
2006,05,02,10,34,10.40
2006,05,02,10,35,10.50
2006,05,02,10,36,10.60
2006,05,02,10,37,10.60
2006,05,02,10,38,10.70
2006,05,02,10,39,10.80
2006,05,02,10,40,10.80
2006,05,02,10,41,10.80
2006,05,02,10,42,10.70
2006,05,02,10,43,10.60
2006,05,02,10,44,10.60
2006,05,02,10,45,10.60
2006,05,02,10,46,10.60
2006,05,02,10,47,10.60
2006,05,02,10,48,10.60
2006,05,02,10,49,10.60
2006,05,02,10,50,10.60
2006,05,02,10,51,10.60
2006,05,02,10,52,10.60
2006,05,02,10,53,10.60
2006,05,02,10,54,10.70
2006,05,02,10,55,10.70
2006,05,02,10,56,10.80
2006,05,02,10,57,10.80
2006,05,02,10,58,10.80
2006,05,02,10,59,10.80
2006,05,02,11,00,10.90
2006,05,02,11,01,10.90
2006,05,02,11,02,10.90
2006,05,02,11,03,11.00
2006,05,02,11,04,11.10
2006,05,02,11,05,11.10
2006,05,02,11,06,11.10
2006,05,02,11,07,11.10
2006,05,02,11,08,11.10
2006,05,02,11,09,11.10
2006,05,02,11,10,11.10
2006,05,02,11,11,11.10
2006,05,02,11,12,11.10
2006,05,02,11,13,11.10
2006,05,02,11,14,11.10
2006,05,02,11,15,11.10
2006,05,02,11,16,11.20
2006,05,02,11,17,11.20
2006,05,02,11,18,11.20
2006,05,02,11,19,11.20
2006,05,02,11,20,11.10
2006,05,02,11,21,11.10
2006,05,02,11,22,11.20
2006,05,02,11,23,11.20
2006,05,02,11,24,11.30
2006,05,02,11,25,11.30
2006,05,02,11,26,11.40
2006,05,02,11,27,11.40
2006,05,02,11,28,11.50
2006,05,02,11,29,11.60
2006,05,02,11,30,11.60
2006,05,02,11,31,11.50
2006,05,02,11,32,11.40
2006,05,02,11,33,11.30
2006,05,02,11,34,11.30
2006,05,02,11,35,11.30
2006,05,02,11,36,11.20
2006,05,02,11,37,11.20
2006,05,02,11,38,11.20
2006,05,02,11,39,11.20
2006,05,02,11,40,11.30
2006,05,02,11,41,11.40
2006,05,02,11,42,11.60
2006,05,02,11,43,11.60
2006,05,02,11,44,11.60
2006,05,02,11,45,11.60
2006,05,02,11,46,11.60
2006,05,02,11,47,11.60
2006,05,02,11,48,11.60
2006,05,02,11,49,11.60
2006,05,02,11,50,11.70
2006,05,02,11,51,11.80
2006,05,02,11,52,11.90
2006,05,02,11,53,12.00
2006,05,02,11,54,12.10
2006,05,02,11,55,12.00
2006,05,02,11,56,12.00
2006,05,02,11,57,12.00
2006,05,02,11,58,12.10
2006,05,02,11,59,12.20
2006,05,02,12,00,12.10
2006,05,02,12,01,12.10
2006,05,02,12,02,12.10
2006,05,02,12,03,12.00
2006,05,02,12,04,12.00
2006,05,02,12,05,12.00
2006,05,02,12,06,12.00
2006,05,02,12,07,12.00
2006,05,02,12,08,12.00
2006,05,02,12,09,12.00
2006,05,02,12,10,12.00
2006,05,02,12,11,12.10
2006,05,02,12,12,12.10
2006,05,02,12,13,12.20
2006,05,02,12,14,12.20
2006,05,02,12,15,12.20
2006,05,02,12,16,12.30
2006,05,02,12,17,12.30
2006,05,02,12,18,12.30
2006,05,02,12,19,12.30
2006,05,02,12,20,12.30
2006,05,02,12,21,12.30
2006,05,02,12,22,12.40
2006,05,02,12,23,12.40
2006,05,02,12,24,12.30
2006,05,02,12,25,12.40
2006,05,02,12,26,12.40
2006,05,02,12,27,12.40
2006,05,02,12,28,12.40
2006,05,02,12,29,12.50
2006,05,02,12,30,12.40
2006,05,02,12,31,12.40
2006,05,02,12,32,12.50
2006,05,02,12,33,12.60
2006,05,02,12,34,12.70
2006,05,02,12,35,12.80
2006,05,02,12,36,12.80
2006,05,02,12,37,12.90
2006,05,02,12,38,13.00
2006,05,02,12,39,13.00
2006,05,02,12,40,13.00
2006,05,02,12,41,12.80
2006,05,02,12,42,12.80
2006,05,02,12,43,12.70
2006,05,02,12,44,12.70
2006,05,02,12,45,12.70
2006,05,02,12,46,12.80
2006,05,02,12,47,12.80
2006,05,02,12,48,12.80
2006,05,02,12,49,12.90
2006,05,02,12,50,12.90
2006,05,02,12,51,13.00
2006,05,02,12,52,13.00
2006,05,02,12,53,13.00
2006,05,02,12,54,12.90
2006,05,02,12,55,12.90
2006,05,02,12,56,12.80
2006,05,02,12,57,12.80
2006,05,02,12,58,12.70
2006,05,02,12,59,12.70
2006,05,02,13,00,12.60
2006,05,02,13,01,12.60
2006,05,02,13,02,12.70
2006,05,02,13,03,12.70
2006,05,02,13,04,12.80
2006,05,02,13,05,12.80
2006,05,02,13,06,12.80
2006,05,02,13,07,12.80
2006,05,02,13,08,12.80
2006,05,02,13,09,12.80
2006,05,02,13,10,12.90
2006,05,02,13,11,13.00
2006,05,02,13,12,13.10
2006,05,02,13,13,13.10
2006,05,02,13,14,13.10
2006,05,02,13,15,13.20
2006,05,02,13,16,13.30
2006,05,02,13,17,13.40
2006,05,02,13,18,13.40
2006,05,02,13,19,13.40
2006,05,02,13,20,13.30
2006,05,02,13,21,13.20
2006,05,02,13,22,13.20
2006,05,02,13,23,13.20
2006,05,02,13,24,13.20
2006,05,02,13,25,13.30
2006,05,02,13,26,13.40
2006,05,02,13,27,13.60
2006,05,02,13,28,13.70
2006,05,02,13,29,13.70
2006,05,02,13,30,13.70
2006,05,02,13,31,13.70
2006,05,02,13,32,13.60
2006,05,02,13,33,13.50
2006,05,02,13,34,13.50
2006,05,02,13,35,13.60
2006,05,02,13,36,13.70
2006,05,02,13,37,13.80
2006,05,02,13,38,13.80
2006,05,02,13,39,13.90
2006,05,02,13,40,13.90
2006,05,02,13,41,13.90
2006,05,02,13,42,14.00
2006,05,02,13,43,14.10
2006,05,02,13,44,14.10
2006,05,02,13,45,14.10
2006,05,02,13,46,14.10
2006,05,02,13,47,14.10
2006,05,02,13,48,14.00
2006,05,02,13,49,14.00
2006,05,02,13,50,13.90
2006,05,02,13,51,13.90
2006,05,02,13,52,14.00
2006,05,02,13,53,14.10
2006,05,02,13,54,14.10
2006,05,02,13,55,14.30
2006,05,02,13,56,14.40
2006,05,02,13,57,14.30
2006,05,02,13,58,14.20
2006,05,02,13,59,14.20
2006,05,02,14,00,14.20
2006,05,02,14,01,14.30
2006,05,02,14,02,14.40
2006,05,02,14,03,14.40
2006,05,02,14,04,14.30
2006,05,02,14,05,14.30
2006,05,02,14,06,14.40
2006,05,02,14,07,14.40
2006,05,02,14,08,14.40
2006,05,02,14,09,14.40
2006,05,02,14,10,14.40
2006,05,02,14,11,14.30
2006,05,02,14,12,14.30
2006,05,02,14,13,14.40
2006,05,02,14,14,14.40
2006,05,02,14,15,14.50
2006,05,02,14,16,14.50
2006,05,02,14,17,14.50
2006,05,02,14,18,14.40
2006,05,02,14,19,14.40
2006,05,02,14,20,14.40
2006,05,02,14,21,14.40
2006,05,02,14,22,14.60
2006,05,02,14,23,14.70
2006,05,02,14,24,14.80
2006,05,02,14,25,14.80
2006,05,02,14,26,14.80
2006,05,02,14,27,14.80
2006,05,02,14,28,14.70
2006,05,02,14,29,14.80
2006,05,02,14,30,14.80
2006,05,02,14,31,14.80
2006,05,02,14,32,14.80
2006,05,02,14,33,14.80
2006,05,02,14,34,14.60
2006,05,02,14,35,14.60
2006,05,02,14,36,14.50
2006,05,02,14,37,14.40
2006,05,02,14,38,14.40
2006,05,02,14,39,14.40
2006,05,02,14,40,14.30
2006,05,02,14,41,14.30
2006,05,02,14,42,14.40
2006,05,02,14,43,14.50
2006,05,02,14,44,14.60
2006,05,02,14,45,14.70
2006,05,02,14,46,14.90
2006,05,02,14,47,15.00
2006,05,02,14,48,15.10
2006,05,02,14,49,15.20
2006,05,02,14,50,15.20
2006,05,02,14,51,15.10
2006,05,02,14,52,15.10
2006,05,02,14,53,14.90
2006,05,02,14,54,14.80
2006,05,02,14,55,14.80
2006,05,02,14,56,14.80
2006,05,02,14,57,14.80
2006,05,02,14,58,14.80
2006,05,02,14,59,14.80
2006,05,02,15,00,14.90
2006,05,02,15,01,15.00
2006,05,02,15,02,15.10
2006,05,02,15,03,15.20
2006,05,02,15,04,15.20
2006,05,02,15,05,15.20
2006,05,02,15,06,15.10
2006,05,02,15,07,15.00
2006,05,02,15,08,15.20
2006,05,02,15,09,15.30
2006,05,02,15,10,15.30
2006,05,02,15,11,15.40
2006,05,02,15,12,15.40
2006,05,02,15,13,15.30
2006,05,02,15,14,15.30
2006,05,02,15,15,15.30
2006,05,02,15,16,15.30
2006,05,02,15,17,15.30
2006,05,02,15,18,15.30
2006,05,02,15,19,15.20
2006,05,02,15,20,15.20
2006,05,02,15,21,15.20
2006,05,02,15,22,15.20
2006,05,02,15,23,15.20
2006,05,02,15,24,15.20
2006,05,02,15,25,15.20
2006,05,02,15,26,15.20
2006,05,02,15,27,15.10
2006,05,02,15,28,15.00
2006,05,02,15,29,15.00
2006,05,02,15,30,15.10
2006,05,02,15,31,15.00
2006,05,02,15,32,15.00
2006,05,02,15,33,15.00
2006,05,02,15,34,15.10
2006,05,02,15,35,15.10
2006,05,02,15,36,15.10
2006,05,02,15,37,15.00
2006,05,02,15,38,15.00
2006,05,02,15,39,15.00
2006,05,02,15,40,15.00
2006,05,02,15,41,15.10
2006,05,02,15,42,15.20
2006,05,02,15,43,15.20
2006,05,02,15,44,15.10
2006,05,02,15,45,15.10
2006,05,02,15,46,15.10
2006,05,02,15,47,15.10
2006,05,02,15,48,15.00
2006,05,02,15,49,14.90
2006,05,02,15,50,14.80
2006,05,02,15,51,14.80
2006,05,02,15,52,14.80
2006,05,02,15,53,14.80
2006,05,02,15,54,14.80
2006,05,02,15,55,14.80
2006,05,02,15,56,14.80
2006,05,02,15,57,14.80
2006,05,02,15,58,14.80
2006,05,02,15,59,14.80
2006,05,02,16,00,14.80
2006,05,02,16,01,14.80
2006,05,02,16,02,15.00
2006,05,02,16,03,15.20
2006,05,02,16,04,15.30
2006,05,02,16,05,15.30
2006,05,02,16,06,15.30
2006,05,02,16,07,15.20
2006,05,02,16,08,15.10
2006,05,02,16,09,15.00
2006,05,02,16,10,15.00
2006,05,02,16,11,15.00
2006,05,02,16,12,14.90
2006,05,02,16,13,15.10
2006,05,02,16,14,15.20
2006,05,02,16,15,15.20
2006,05,02,16,16,15.20
2006,05,02,16,17,15.20
2006,05,02,16,18,15.30
2006,05,02,16,19,15.30
2006,05,02,16,20,15.40
2006,05,02,16,21,15.30
2006,05,02,16,22,15.40
2006,05,02,16,23,15.30
2006,05,02,16,24,15.30
2006,05,02,16,25,15.20
2006,05,02,16,26,15.30
2006,05,02,16,27,15.30
2006,05,02,16,28,15.30
2006,05,02,16,29,15.30
2006,05,02,16,30,15.40
2006,05,02,16,31,15.40
2006,05,02,16,32,15.40
2006,05,02,16,33,15.40
2006,05,02,16,34,15.40
2006,05,02,16,35,15.40
2006,05,02,16,36,15.30
2006,05,02,16,37,15.30
2006,05,02,16,38,15.20
2006,05,02,16,39,15.10
2006,05,02,16,40,15.10
2006,05,02,16,41,15.10
2006,05,02,16,42,15.10
2006,05,02,16,43,15.10
2006,05,02,16,44,15.10
2006,05,02,16,45,15.10
2006,05,02,16,46,15.20
2006,05,02,16,47,15.30
2006,05,02,16,48,15.30
2006,05,02,16,49,15.30
2006,05,02,16,50,15.30
2006,05,02,16,51,15.40
2006,05,02,16,52,15.40
2006,05,02,16,53,15.50
2006,05,02,16,54,15.50
2006,05,02,16,55,15.40
2006,05,02,16,56,15.40
2006,05,02,16,57,15.30
2006,05,02,16,58,15.30
2006,05,02,16,59,15.30
2006,05,02,17,00,15.30
2006,05,02,17,01,15.30
2006,05,02,17,02,15.30
2006,05,02,17,03,15.40
2006,05,02,17,04,15.50
2006,05,02,17,05,15.60
2006,05,02,17,06,15.50
2006,05,02,17,07,15.50
2006,05,02,17,08,15.50
2006,05,02,17,09,15.50
2006,05,02,17,10,15.50
2006,05,02,17,11,15.40
2006,05,02,17,12,15.30
2006,05,02,17,13,15.30
2006,05,02,17,14,15.30
2006,05,02,17,15,15.30
2006,05,02,17,16,15.30
2006,05,02,17,17,15.30
2006,05,02,17,18,15.30
2006,05,02,17,19,15.30
2006,05,02,17,20,15.40
2006,05,02,17,21,15.40
2006,05,02,17,22,15.40
2006,05,02,17,23,15.40
2006,05,02,17,24,15.40
2006,05,02,17,25,15.40
2006,05,02,17,26,15.40
2006,05,02,17,27,15.30
2006,05,02,17,28,15.30
2006,05,02,17,29,15.30
2006,05,02,17,30,15.30
2006,05,02,17,31,15.30
2006,05,02,17,32,15.30
2006,05,02,17,33,15.30
2006,05,02,17,34,15.30
2006,05,02,17,35,15.20
2006,05,02,17,36,15.20
2006,05,02,17,37,15.20
2006,05,02,17,38,15.20
2006,05,02,17,39,15.20
2006,05,02,17,40,15.20
2006,05,02,17,41,15.20
2006,05,02,17,42,15.20
2006,05,02,17,43,15.20
2006,05,02,17,44,15.20
2006,05,02,17,45,15.10
2006,05,02,17,46,15.10